Location: Borbetomagus
(49.6328°N, 8.3592°E)
Time: 05:31:03
(UTC+00:00)

Meteor 2-6 Rocket - Pass Details

Date: 19 May 2025
Orbit: 804 x 913 km, 81.3° (Epoch: 14 June)

Event Time Altitude Azimuth Distance (km) Brightness Sun altitude
Exits shadow 21:30:18 16° 191° (SSW) 2,155 5.9 -16.0°
Maximum altitude 21:35:05 88° 279° (W) 890 4.3 -16.4°
Drops below altitude 10° 21:40:50 10° 12° (NNE) 2,516 7.5 -16.8°
Sets 21:43:14 0° 12° (NNE) 3,440 8.3 -17.0°
